Probability
0 0 0 0 19 0 0 0 0 0 0 0 0 0 0 0 0 23 23 0 0 6 55 81 97 100 100 100 100 100 100 100 100 100 100 100 100 100 97 61 32 19 3 10 13 35 55 58 61
0 0 0 0 0 0 0 0 0 0 0 0 0 0 0 0 0 0 3 0 0 16 58 42 97 100 100 100 100 100 100 100 100 100 100 100 100 97 94 94 77 35 19 6 3 0 3 13 29
0 0 0 0 0 0 0 0 0 0 0 0 0 0 0 0 0 0 3 0 0 13 48 90 97 100 100 100 100 100 100 100 100 100 100 100 100 97 90 87 84 71 61 32 23 10 10 0 3
0 0 0 0 0 0 0 0 0 0 0 0 0 0 0 0 0 0 0 0 0 3 19 90 97 97 100 100 100 100 100 100 100 100 100 100 97 94 87 87 84 77 81 71 61 48 39 23 16
0 0 0 0 0 0 0 0 0 0 0 0 0 0 0 10 0 0 0 0 0 0 10 90 97 97 97 100 100 100 100 100 100 100 100 97 97 87 84 87 84 81 81 74 77 77 84 87 81
0 0 0 0 0 0 0 0 0 0 0 0 0 0 6 16 0 0 0 0 0 0 3 94 97 97 97 94 94 97 97 100 100 100 97 97 97 94 94 94 94 94 94 90 97 94 94 94 97
0 0 0 0 0 0 0 0 0 0 0 0 0 0 10 26 13 3 3 0 0 0 3 87 90 97 94 94 94 94 97 100 100 100 97 97 100 100 100 97 97 97 97 100 100 100 100 100 100
0 0 0 0 0 0 0 0 0 0 3 6 3 0 10 52 29 13 16 6 0 3 6 55 84 94 97 90 94 97 97 100 100 100 100 100 100 100 100 100 100 100 100 100 100 100 100 100 100
0 0 0 0 0 0 0 0 0 0 26 29 13 19 23 74 35 45 58 48 42 16 29 26 84 97 100 84 94 97 100 100 100 100 100 100 100 97 100 100 100 100 100 100 100 100 100 100 100
0 0 0 0 0 0 0 0 0 0 29 58 71 87 97 97 87 87 90 77 90 84 71 77 81 100 97 87 100 100 100 100 100 100 100 100 100 100 100 97 100 100 100 100 100 100 100 100 100
0 0 0 0 0 0 0 0 0 0 3 10 48 84 100 97 100 100 90 87 97 100 97 97 100 100 97 100 97 100 100 100 100 100 100 100 100 100 100 100 100 100 100 100 100 100 100 100 100
0 0 0 0 0 0 0 0 0 3 3 23 45 74 97 97 100 100 100 94 90 97 94 94 100 100 100 100 100 100 100 100 100 97 100 100 100 100 100 100 94 97 100 100 97 100 90 97 100
0 0 0 0 0 0 0 0 0 0 10 32 48 77 94 97 100 100 97 94 90 97 97 100 100 100 100 100 100 100 100 100 97 100 97 97 97 97 94 97 100 100 97 100 100 100 100 100 100
0 0 0 0 0 0 0 0 0 3 13 32 58 77 90 97 100 100 100 100 100 100 97 97 97 97 100 100 100 100 100 100 100 94 94 90 94 97 97 97 100 100 100 97 100 100 100 100 100
0 0 0 0 0 0 0 0 3 16 13 32 58 71 87 100 100 100 100 100 100 100 100 100 97 97 97 100 100 100 100 100 94 90 90 94 97 97 97 94 100 100 100 100 100 94 94 97 94
0 0 0 0 0 0 0 0 6 16 10 35 65 81 94 100 100 100 100 100 100 100 100 100 97 97 97 100 100 100 97 97 90 90 90 90 90 90 100 97 100 100 100 100 100 94 94 90 90
0 0 0 0 0 0 0 0 26 39 29 48 65 87 97 100 100 100 100 100 100 100 100 97 97 94 97 100 100 97 94 87 84 81 77 77 81 74 81 90 94 100 100 100 100 97 94 90 87
0 0 0 0 0 0 0 0 32 48 45 58 71 87 100 100 100 100 97 100 100 97 97 97 97 97 94 90 90 87 84 71 68 61 65 58 58 55 61 61 71 74 74 81 90 94 97 94 90
0 0 0 0 0 0 0 10 29 42 55 61 71 84 100 100 100 97 97 100 97 97 97 97 94 94 94 81 65 52 42 35 35 32 29 32 29 32 45 35 45 61 65 71 68 71 81 84 87
0 0 0 0 3 3 3 3 32 45 58 74 84 94 100 100 100 100 100 100 94 97 97 97 94 87 84 87 81 71 58 35 26 19 19 23 16 19 10 19 19 23 58 61 74 84 71 55 74
0 0 0 0 0 3 3 3 13 39 65 77 87 97 100 100 100 97 94 94 94 94 90 81 90 87 87 87 61 58 71 55 19 16 13 16 13 16 19 26 19 32 23 23 45 61 65 55 65
0 0 0 0 0 0 0 0 0 13 42 68 77 90 100 97 97 87 87 84 77 77 68 81 94 100 97 94 52 39 35 13 10 29 13 26 23 16 13 19 19 19 16 26 29 19 45 68 52
0 0 0 0 0 0 0 0 0 0 6 29 71 87 94 90 77 71 68 71 65 61 58 77 81 90 94 94 77 81 39 16 13 23 23 29 16 6 0 3 19 23 19 16 29 45 48 39 58
0 0 0 0 0 0 0 0 0 0 3 13 55 81 81 68 65 58 55 55 48 45 48 61 81 90 87 87 81 77 65 58 42 48 29 13 6 6 0 0 3 6 13 16 23 29 35 35 52
0 0 0 0 0 0 0 0 0 0 0 6 52 52 58 52 39 35 29 39 35 35 52 58 77 87 87 74 68 68 61 68 65 48 19 10 3 3 3 0 3 3 6 10 10 23 26 32 42
0 0 0 0 0 0 0 0 0 0 6 6 16 26 23 19 16 16 16 16 13 16 29 35 58 65 68 61 65 58 61 35 29 35 26 10 6 3 3 3 3 3 6 3 10 13 23 32 42
0 0 0 0 0 0 0 0 0 0 3 3 0 6 0 0 0 0 0 0 0 3 10 10 16 39 42 42 45 45 42 35 42 52 45 16 16 6 0 0 0 0 0 3 3 10 23 35 39
0 0 0 0 0 0 0 0 0 3 0 0 0 0 0 0 0 0 0 0 0 0 3 6 6 10 6 6 10 3 19 29 35 45 45 42 32 23 0 0 0 0 3 0 3 13 16 29 39
0 0 0 0 0 0 0 0 0 0 0 0 0 0 0 0 0 0 0 0 0 0 0 0 0 0 0 0 0 6 6 6 13 26 42 42 39 19 10 0 0 0 0 3 6 10 10 10 23
0 0 0 0 0 0 0 0 0 0 0 0 0 0 0 0 0 0 0 0 0 0 0 0 0 0 0 0 0 0 3 6 6 6 16 23 29 19 6 0 0 0 0 3 3 6 10 10 13
Height
5931 5931 5932 5933 5934 5935 5934 5934 5933 5932 5932 5932 5932 5932 5932 5932 5933 5935 5933 5931 5931 5930 5929 5928 5928 5928 5927 5927 5926 5925 5924 5922 5921 5920 5919 5918 5916 5915 5914 5913 5912 5911 5910 5909 5908 5906 5905 5904 5902
5932 5933 5934 5935 5936 5937 5936 5935 5934 5933 5933 5933 5932 5932 5932 5932 5932 5932 5931 5931 5931 5930 5929 5928 5928 5928 5927 5926 5925 5924 5923 5922 5921 5919 5918 5917 5916 5915 5914 5913 5912 5911 5910 5909 5908 5906 5905 5904 5903
5933 5933 5935 5936 5936 5937 5936 5935 5935 5934 5934 5933 5933 5933 5932 5932 5932 5931 5931 5931 5930 5929 5928 5928 5928 5927 5926 5926 5925 5924 5922 5921 5920 5919 5918 5916 5915 5914 5913 5912 5912 5911 5910 5908 5907 5906 5905 5904 5903
5933 5935 5936 5937 5937 5936 5936 5935 5934 5934 5934 5934 5933 5933 5932 5932 5931 5931 5930 5930 5929 5928 5927 5927 5927 5926 5925 5925 5924 5923 5921 5920 5919 5918 5917 5916 5914 5913 5913 5912 5911 5910 5909 5908 5907 5905 5904 5903 5903
5932 5934 5936 5937 5936 5936 5936 5935 5934 5934 5934 5933 5933 5932 5932 5931 5930 5930 5930 5929 5928 5927 5926 5926 5925 5925 5924 5923 5922 5921 5920 5919 5918 5917 5916 5914 5913 5912 5911 5910 5909 5909 5908 5907 5906 5905 5903 5903 5902
5932 5934 5936 5937 5936 5936 5935 5935 5934 5934 5933 5933 5932 5932 5931 5930 5930 5929 5929 5928 5927 5926 5925 5924 5924 5923 5922 5921 5920 5919 5918 5917 5916 5915 5914 5913 5911 5910 5909 5909 5908 5907 5906 5905 5904 5903 5902 5901 5900
5931 5932 5933 5934 5935 5935 5935 5934 5934 5933 5933 5932 5931 5931 5930 5929 5929 5928 5927 5927 5926 5925 5924 5923 5922 5921 5920 5919 5918 5917 5916 5915 5914 5912 5911 5910 5909 5908 5907 5906 5905 5905 5904 5903 5902 5901 5900 5899 5899
5928 5931 5931 5932 5933 5933 5933 5933 5933 5933 5932 5931 5930 5930 5929 5928 5927 5927 5926 5925 5924 5923 5922 5921 5920 5919 5918 5917 5916 5915 5914 5912 5911 5910 5909 5908 5907 5905 5904 5903 5902 5902 5901 5900 5899 5899 5898 5897 5896
5925 5929 5930 5930 5931 5931 5932 5932 5932 5931 5931 5930 5929 5929 5928 5927 5926 5925 5924 5923 5922 5921 5920 5919 5917 5916 5915 5914 5913 5912 5910 5909 5908 5907 5906 5904 5903 5902 5901 5900 5899 5898 5897 5896 5896 5895 5894 5894 5893
5922 5925 5926 5926 5928 5929 5929 5930 5930 5930 5929 5929 5928 5927 5926 5925 5924 5923 5922 5921 5919 5918 5917 5915 5914 5913 5912 5910 5909 5908 5907 5905 5904 5902 5901 5900 5899 5897 5896 5895 5895 5894 5893 5892 5891 5891 5890 5889 5889
5918 5920 5921 5922 5924 5925 5927 5927 5928 5927 5927 5927 5926 5925 5924 5923 5921 5920 5919 5918 5916 5915 5914 5912 5911 5909 5908 5906 5905 5904 5902 5901 5899 5897 5896 5894 5893 5892 5891 5890 5889 5888 5887 5886 5886 5885 5885 5884 5884
5914 5916 5917 5918 5920 5922 5923 5924 5925 5925 5925 5924 5924 5923 5921 5920 5918 5917 5916 5914 5913 5912 5910 5908 5907 5905 5903 5902 5900 5899 5897 5895 5893 5891 5890 5889 5887 5886 5884 5884 5883 5882 5881 5880 5879 5879 5878 5878 5877
5910 5911 5912 5914 5916 5917 5919 5920 5921 5922 5922 5921 5921 5920 5918 5916 5915 5914 5912 5911 5909 5908 5906 5904 5902 5900 5899 5897 5895 5893 5891 5889 5887 5885 5884 5882 5881 5879 5878 5877 5875 5874 5874 5873 5872 5871 5871 5871 5870
5905 5907 5908 5910 5911 5913 5915 5916 5917 5918 5918 5918 5917 5916 5914 5913 5911 5910 5908 5907 5905 5903 5901 5899 5898 5895 5894 5892 5890 5888 5886 5884 5881 5879 5877 5876 5874 5872 5870 5869 5868 5867 5865 5864 5864 5863 5863 5862 5862
5900 5903 5905 5905 5907 5909 5911 5912 5912 5913 5913 5913 5913 5911 5910 5909 5907 5906 5904 5902 5900 5898 5896 5894 5892 5890 5888 5886 5884 5882 5880 5877 5875 5873 5871 5869 5867 5865 5863 5862 5861 5859 5857 5856 5855 5854 5853 5852 5852
5895 5899 5901 5901 5902 5904 5908 5908 5906 5907 5908 5908 5907 5906 5905 5904 5902 5900 5899 5897 5895 5893 5891 5889 5887 5885 5883 5881 5878 5876 5874 5871 5869 5867 5865 5862 5860 5858 5856 5855 5853 5851 5849 5848 5847 5845 5844 5842 5842
5891 5894 5896 5896 5897 5899 5902 5902 5900 5901 5902 5902 5902 5901 5900 5898 5897 5895 5893 5891 5890 5888 5885 5883 5881 5879 5877 5875 5872 5870 5868 5866 5863 5861 5859 5856 5854 5852 5850 5848 5846 5844 5842 5840 5838 5836 5835 5834 5833
5886 5888 5890 5891 5891 5894 5895 5895 5894 5895 5895 5895 5895 5895 5894 5893 5891 5890 5888 5886 5884 5882 5880 5877 5875 5872 5871 5869 5867 5864 5862 5860 5857 5855 5853 5851 5848 5846 5844 5841 5839 5836 5834 5832 5829 5828 5826 5825 5824
5880 5883 5884 5884 5885 5888 5888 5888 5888 5888 5888 5888 5888 5888 5888 5887 5885 5884 5882 5880 5878 5876 5873 5871 5869 5866 5865 5863 5861 5858 5856 5854 5852 5849 5847 5845 5842 5840 5837 5835 5832 5829 5826 5824 5822 5819 5818 5817 5815
5876 5878 5879 5879 5879 5881 5881 5882 5882 5881 5882 5882 5882 5881 5881 5880 5878 5877 5875 5874 5871 5869 5867 5865 5862 5860 5858 5856 5854 5852 5850 5848 5846 5844 5841 5839 5836 5834 5831 5828 5825 5822 5819 5816 5813 5811 5809 5808 5806
5872 5874 5874 5874 5874 5875 5876 5876 5875 5874 5874 5874 5874 5874 5874 5873 5872 5870 5868 5866 5864 5862 5860 5857 5856 5854 5852 5850 5848 5846 5844 5842 5840 5838 5835 5833 5830 5828 5825 5822 5818 5815 5811 5808 5805 5802 5800 5799 5797
5871 5869 5869 5869 5870 5872 5871 5873 5870 5867 5868 5867 5867 5867 5866 5866 5864 5863 5861 5858 5856 5854 5852 5850 5848 5847 5845 5843 5842 5840 5838 5836 5834 5832 5829 5827 5824 5821 5818 5815 5811 5808 5804 5800 5797 5794 5792 5790 5789
5866 5866 5866 5865 5866 5866 5866 5867 5869 5861 5861 5860 5860 5859 5858 5857 5856 5854 5853 5851 5849 5847 5845 5842 5841 5840 5838 5837 5835 5833 5831 5829 5828 5825 5823 5820 5818 5815 5812 5808 5805 5801 5797 5793 5789 5786 5783 5781 5779
5863 5863 5862 5862 5863 5864 5861 5862 5863 5856 5855 5854 5853 5852 5851 5850 5849 5847 5845 5844 5841 5839 5837 5835 5833 5832 5831 5829 5828 5826 5824 5822 5820 5818 5816 5813 5811 5808 5804 5801 5797 5793 5789 5786 5782 5778 5775 5772 5770
5861 5862 5863 5863 5862 5861 5857 5856 5856 5851 5850 5848 5847 5846 5845 5843 5842 5840 5838 5836 5834 5832 5830 5827 5826 5824 5823 5821 5820 5818 5816 5814 5812 5810 5808 5805 5803 5800 5797 5793 5790 5786 5782 5778 5774 5771 5767 5764 5762
5859 5859 5860 5860 5860 5858 5854 5852 5849 5846 5845 5843 5842 5840 5839 5837 5835 5833 5831 5829 5827 5824 5822 5819 5817 5815 5814 5813 5811 5809 5807 5805 5803 5801 5799 5796 5794 5792 5789 5786 5782 5778 5775 5771 5767 5763 5759 5756 5753
5856 5856 5855 5854 5853 5852 5852 5848 5844 5842 5840 5838 5836 5834 5832 5831 5829 5826 5824 5821 5818 5816 5813 5810 5808 5805 5804 5802 5801 5799 5797 5795 5793 5791 5789 5787 5784 5782 5780 5777 5774 5770 5767 5763 5759 5755 5752 5748 5745
5854 5852 5851 5850 5849 5849 5849 5846 5842 5837 5835 5832 5830 5828 5825 5823 5820 5818 5815 5812 5809 5806 5803 5800 5797 5795 5793 5791 5789 5787 5786 5784 5782 5780 5778 5776 5774 5772 5770 5768 5765 5762 5759 5755 5751 5748 5744 5741 5737
5851 5850 5848 5847 5845 5844 5843 5843 5836 5832 5829 5826 5823 5820 5817 5814 5811 5808 5805 5802 5798 5795 5792 5789 5785 5783 5780 5777 5776 5774 5773 5771 5770 5768 5766 5765 5763 5761 5760 5758 5755 5753 5750 5747 5744 5740 5737 5733 5730
5848 5846 5844 5843 5840 5838 5836 5835 5830 5825 5822 5819 5815 5812 5808 5804 5800 5797 5793 5789 5785 5782 5779 5775 5772 5769 5766 5763 5761 5759 5758 5756 5755 5754 5753 5752 5751 5750 5748 5747 5745 5743 5741 5738 5735 5732 5729 5726 5723
Wind_Speed
6 7 8 9 9 9 6 6 6 7 7 7 7 7 7 7 7 6 6 6 6 5 6 6 6 5 5 5 5 6 6 6 6 6 6 7 7 8 8 8 8 8 7 6 6 6 6 7 7
3 4 6 7 9 5 3 4 6 7 8 8 8 8 8 8 7 6 5 4 4 4 4 5 4 4 4 4 5 5 6 6 6 6 6 5 6 6 6 6 6 6 6 5 4 4 4 4 5
2 2 3 5 5 2 1 1 3 7 7 8 8 7 7 7 6 5 4 3 3 3 3 4 4 4 5 5 6 6 6 6 6 6 6 5 5 5 5 5 5 5 5 5 4 3 2 2 3
5 3 1 1 2 2 2 1 1 4 5 6 6 6 6 5 5 3 2 2 2 3 3 4 5 5 6 6 7 7 7 7 7 7 6 6 5 5 5 5 4 4 5 5 5 4 3 3 3
8 6 4 4 4 3 2 2 2 2 3 3 3 3 3 3 2 2 1 2 3 3 4 4 5 6 6 7 7 7 7 7 7 7 7 7 7 7 7 6 6 5 5 5 5 5 5 5 5
11 9 8 8 7 5 4 4 4 4 3 3 2 1 0 0 1 1 2 3 4 4 5 5 6 6 7 8 8 8 8 9 9 9 9 9 9 9 9 9 8 8 7 7 7 7 7 7 7
14 13 12 11 10 8 6 6 6 6 5 4 3 2 2 1 2 2 4 5 5 6 7 7 8 8 8 9 9 10 10 11 11 12 12 12 12 12 12 12 11 11 10 10 10 10 10 10 10
17 16 14 14 12 10 8 8 7 6 5 4 4 3 3 3 4 5 6 8 9 9 10 11 12 12 12 12 13 13 13 14 15 15 15 16 16 16 16 16 15 15 14 14 14 13 13 13 13
19 18 17 17 15 12 10 9 9 7 6 5 5 5 5 6 7 8 10 11 12 13 14 15 16 17 18 18 18 18 18 18 19 19 20 20 20 20 20 20 20 19 19 18 18 18 17 17 17
20 20 20 19 16 14 11 10 9 8 7 7 7 7 8 9 11 12 14 15 16 17 18 19 20 21 22 22 22 22 22 23 23 24 24 24 25 25 25 24 24 24 23 23 23 22 22 21 21
21 22 22 19 18 16 14 12 11 9 9 9 9 10 12 13 15 16 17 19 20 20 21 22 23 24 24 24 25 25 25 26 26 27 28 28 29 29 29 29 29 29 28 28 27 27 26 26 25
22 22 22 21 19 18 17 15 13 12 13 12 12 13 15 16 18 19 21 22 23 23 23 24 24 25 25 26 26 26 26 27 28 29 30 30 31 32 32 33 33 33 33 33 33 32 31 31 30
23 23 23 23 22 20 19 18 17 16 15 14 16 17 18 19 21 23 24 26 26 26 26 26 25 25 25 26 26 25 26 27 28 29 29 30 31 32 34 35 35 36 37 38 38 37 37 36 35
26 24 23 24 24 23 21 21 20 19 19 19 19 20 22 23 25 26 28 29 29 29 28 28 27 26 26 26 25 24 25 26 27 27 28 28 29 30 31 33 35 37 39 40 41 41 41 41 40
28 25 24 26 26 25 24 24 24 23 22 22 23 24 25 26 28 29 30 31 31 30 30 29 27 27 27 27 26 25 25 25 26 26 27 27 27 28 29 31 32 35 38 40 42 43 44 44 44
29 28 26 28 27 26 25 27 29 26 26 26 27 28 28 29 29 30 31 31 32 31 30 29 28 28 28 27 26 25 25 25 25 25 25 25 26 26 27 28 30 33 34 37 39 42 44 44 44
30 29 29 30 30 29 28 31 31 29 30 30 30 30 31 31 31 32 32 32 32 31 31 31 30 30 28 27 26 25 24 24 24 23 23 23 23 24 25 26 28 31 33 34 36 37 40 42 43
28 30 31 32 33 32 32 34 34 34 34 33 33 33 32 32 32 32 32 32 32 32 32 32 32 30 29 27 26 24 24 23 22 20 20 21 21 21 23 24 27 29 32 33 35 36 38 39 40
28 29 30 35 35 35 36 37 37 37 36 36 35 34 33 32 31 31 31 32 33 33 33 34 33 31 30 28 25 23 21 19 18 17 17 18 19 21 22 24 26 28 30 32 34 36 37 38 39
22 24 27 32 34 35 36 36 37 37 36 35 34 33 31 30 30 30 31 32 33 34 35 35 34 32 30 27 25 22 19 17 16 16 17 18 20 21 23 24 26 28 30 31 34 36 37 37 38
15 17 21 26 29 30 31 30 32 33 32 32 31 30 29 29 30 31 33 34 35 35 36 35 33 32 30 27 25 22 20 19 19 19 20 21 21 22 23 25 27 28 30 31 32 35 36 37 37
9 15 17 20 20 20 24 20 25 28 28 29 30 30 30 30 31 32 33 34 35 35 35 34 33 33 30 28 26 24 23 23 22 23 24 24 24 24 25 26 27 29 29 30 31 33 35 36 37
12 13 14 15 16 17 19 17 18 26 25 26 27 27 27 28 28 30 31 32 33 33 34 34 33 32 31 29 28 27 27 27 26 27 27 27 26 26 26 26 27 29 30 30 30 32 33 35 36
13 13 13 13 13 13 16 14 15 22 21 21 22 23 23 24 26 27 29 30 31 33 33 35 34 33 32 31 31 31 31 31 31 30 30 29 28 27 27 27 29 30 30 30 31 31 32 33 35
12 11 10 10 10 11 16 14 17 19 18 18 19 19 20 21 23 26 28 30 32 33 34 35 36 35 34 34 34 34 34 34 34 33 32 31 30 29 28 28 29 30 30 31 31 31 32 32 33
12 11 11 11 11 13 16 15 18 18 18 19 20 21 22 23 25 27 29 31 33 35 37 38 38 38 37 37 37 37 37 36 35 34 33 32 31 30 29 28 29 30 30 31 31 31 32 31 31
11 11 13 14 14 14 13 18 19 19 20 21 21 23 24 26 28 30 32 33 35 37 38 39 40 41 41 40 39 39 38 38 37 36 35 33 32 31 30 30 29 30 30 30 31 31 32 31 30
11 12 12 13 14 14 14 17 21 21 21 23 25 27 29 31 33 34 35 37 38 40 42 43 44 45 45 44 43 42 41 40 38 37 36 35 34 32 31 31 30 30 30 30 31 31 31 30 30
13 13 13 14 16 17 17 20 23 23 25 27 29 31 33 35 37 39 41 42 43 45 46 47 48 49 49 48 47 46 45 43 42 40 39 38 36 35 33 32 31 31 31 30 30 30 30 30 29
14 15 16 17 18 20 21 25 24 27 29 31 33 35 37 39 41 43 45 46 47 48 49 51 51 52 53 53 52 51 50 49 47 45 42 40 39 37 35 34 33 32 31 31 30 30 30 30 29
Wind_Direction
94 81 71 65 66 68 82 109 123 124 126 125 125 122 119 114 111 109 99 89 83 75 67 62 57 47 34 20 11 9 14 21 28 32 34 36 38 40 41 42 42 41 42 44 48 52 57 60 61
103 89 74 60 63 56 71 113 126 125 126 127 125 122 117 110 106 102 94 82 73 62 49 45 38 24 8 352 344 344 349 356 3 7 11 14 19 22 25 27 28 29 28 27 27 30 39 49 54
181 134 78 55 55 50 32 87 122 128 129 129 127 125 120 113 104 98 85 66 43 29 23 15 359 342 333 327 324 326 331 337 343 345 347 348 350 353 358 3 4 5 6 3 0 355 353 9 26
221 215 227 24 359 341 312 292 152 138 137 135 129 123 118 115 107 97 76 37 6 359 358 348 337 327 321 317 315 317 321 326 330 331 329 326 323 324 324 326 328 331 335 335 332 325 314 307 312
233 230 233 247 256 268 279 264 243 196 168 149 136 125 118 113 96 77 26 341 333 335 338 334 328 322 318 315 312 312 314 316 318 319 319 315 308 303 302 301 301 302 306 308 307 304 298 290 285
238 236 232 237 246 246 248 256 259 247 227 206 193 183 177 115 42 11 337 324 320 320 320 318 316 314 312 310 308 308 308 308 309 307 305 304 301 296 292 291 289 286 286 287 288 287 287 285 280
238 236 234 236 239 241 244 248 253 256 247 236 228 235 256 274 320 325 324 322 321 320 316 312 308 305 303 302 303 303 303 303 303 302 299 296 295 293 289 286 284 281 280 279 278 278 280 280 278
242 240 239 239 239 240 240 240 243 245 244 242 242 251 268 282 301 312 315 317 315 312 309 306 302 300 298 298 298 299 299 299 299 298 297 295 293 290 287 283 281 279 277 276 276 276 276 276 276
244 242 241 240 238 236 233 236 236 235 237 243 253 268 285 295 300 307 310 311 308 305 303 301 298 296 294 293 293 293 294 294 294 294 293 292 291 288 285 283 280 279 278 277 276 276 276 275 275
243 241 241 244 241 235 228 230 227 223 231 247 261 276 289 297 303 309 310 309 307 304 302 300 297 295 294 292 291 291 290 290 290 290 289 289 288 286 283 281 279 277 276 276 275 275 274 274 274
243 242 245 244 242 238 233 230 228 230 240 253 269 282 292 299 304 309 309 308 307 304 302 301 298 296 295 293 291 291 290 289 289 288 287 285 284 283 281 279 277 275 273 272 272 272 272 272 272
242 243 244 244 241 238 237 235 232 236 248 262 276 288 295 300 304 307 308 308 307 305 303 302 300 299 297 295 293 292 291 290 288 287 286 284 282 281 280 277 275 273 272 271 270 270 269 269 270
239 240 241 242 242 239 238 239 240 246 257 269 281 288 293 297 301 303 304 305 306 304 301 301 300 299 299 297 294 293 291 290 288 287 287 286 284 282 280 276 273 272 270 270 269 268 268 268 268
238 238 239 241 242 242 241 243 247 252 262 272 279 284 289 293 296 297 300 301 302 302 301 302 301 300 301 300 297 295 293 291 290 290 290 290 287 285 282 279 276 273 272 270 268 268 269 268 268
237 235 237 241 242 244 247 251 254 258 265 271 275 279 283 286 289 292 294 296 297 299 300 301 302 302 302 302 300 299 296 295 293 292 293 291 290 289 286 283 281 278 276 275 272 269 268 268 268
237 235 236 241 242 246 249 254 258 262 266 269 272 276 279 280 283 286 289 291 293 295 297 300 301 301 301 301 300 298 295 296 295 295 296 295 294 293 291 288 286 283 282 280 278 274 271 271 270
236 235 235 242 243 246 248 252 261 263 265 268 271 273 275 277 279 281 285 286 290 292 295 298 299 300 300 299 299 297 295 295 295 295 296 297 298 299 299 296 293 289 287 285 283 279 276 274 273
236 235 238 241 246 247 250 254 260 263 265 267 270 272 272 273 276 277 280 283 287 290 293 296 297 297 298 298 298 295 294 293 294 296 298 300 302 303 304 302 299 295 292 290 287 285 281 278 276
241 239 241 245 248 250 252 256 260 263 266 268 270 271 271 271 273 274 277 281 285 288 290 292 295 294 295 295 295 294 292 292 294 297 301 304 307 309 310 308 304 300 296 293 289 286 284 282 279
246 244 246 250 252 254 257 260 264 267 269 270 271 270 269 269 269 271 276 279 282 284 286 288 292 292 292 293 294 292 292 293 296 301 305 307 309 311 313 313 311 307 302 297 292 289 285 282 280
252 249 251 255 259 263 265 269 271 269 270 270 270 269 268 269 270 273 275 277 279 280 283 285 287 288 291 290 291 290 291 293 296 299 302 306 308 311 312 314 313 311 307 302 295 290 286 282 281
272 264 264 267 269 270 272 269 276 275 272 271 271 271 270 270 271 272 272 274 276 277 279 280 282 286 288 289 290 290 291 291 291 294 296 300 304 308 310 312 313 313 310 306 300 293 288 283 280
274 279 278 278 278 276 279 275 269 278 276 275 275 274 273 272 271 272 272 273 274 275 278 279 283 284 285 287 288 289 288 288 288 289 291 293 296 301 305 309 312 314 312 309 305 299 292 286 281
287 291 294 297 295 286 279 279 267 278 282 281 280 279 277 276 275 274 273 273 272 274 275 278 281 283 284 285 287 287 286 285 286 286 287 289 291 296 301 306 310 313 313 310 307 305 298 291 284
297 299 307 305 298 284 288 287 269 284 287 286 285 283 281 278 276 275 273 272 273 274 276 280 283 283 283 284 284 284 284 283 284 284 285 287 289 292 297 302 307 310 311 311 309 307 303 296 288
292 290 286 278 277 278 294 291 284 290 291 290 287 285 281 278 276 275 275 275 276 278 279 281 282 282 282 282 282 281 281 282 283 283 284 286 288 290 293 298 302 305 308 309 309 308 306 300 292
300 292 284 286 290 291 284 285 289 288 289 288 286 283 280 279 277 276 276 276 276 277 278 278 280 281 281 281 280 280 280 282 283 283 284 285 287 289 292 295 299 302 304 306 307 308 307 303 298
308 304 300 295 289 286 286 290 286 288 285 283 282 281 281 280 279 278 277 277 277 277 277 278 279 280 281 281 281 281 281 282 283 283 284 285 286 288 290 293 295 298 301 303 305 307 307 304 300
315 311 306 298 292 289 284 279 284 287 285 283 282 282 281 280 279 278 278 277 277 277 277 278 278 279 280 281 281 281 281 282 282 283 284 285 286 287 288 291 293 296 298 300 302 304 305 304 302
316 315 312 305 301 299 297 289 292 288 288 287 285 284 282 281 279 278 278 277 277 277 277 277 277 278 278 279 280 281 282 282 282 282 283 285 286 286 286 289 290 293 295 296 298 300 303 303 301